SL-16 DEB, 22616

Orbit data source: Space-Track

SL-16 DEB, 22616 is space debris in LEO originally from a launch on Fri, 26 Mar 1993 UTC launched from the Tyuratam Missile And Space Complex (TTMTR). Debris objects in space refer to the collection of defunct objects orbiting the Earth. Examples of debris include non-operational satellites, rocket bodies, and fragments generated from explosions, collisions, or faulty payload assembly.

Loading next visibility...
Identifier
22616, 1993-016AA
Orbit
LEO
Last TLE update
22 hours ago
Origin
Manufacturer
Unknown
Mission
Spacecraft
Bus & Motor
Unknown
Mass
Unknown
Launch date (UTC)
1993-03-26 (32 years ago)
Launch vehicle
Unknown
Launch site
Tyuratam Missile And Space Complex (TTMTR)
Object type
Payload
Rocket body
Debris
Shape & HBR
Unknown
Radar Cross Section
Small (<0.1 m²)

Expand to show TLE details & history

TLE from 22 hours ago
0 SL-16 DEB
1 22616U 93016AA  25185.82752083  .00000051  00000-0  89421-4 0  9996
2 22616  70.9940 219.9166 0188804 310.3954 231.7049 13.73921664617378
Epoch: 2025-07-04T19:51Z
TLE epoch observation values (Epoch: 2025-07-04T19:51:37.799Z)
Latitude
-0.51033°
Longitude
179.10966°
Altitude
1,075.704 km
Speed
7.271 km/s
True Right ascension
02h 40m 21s
True Declination
0° 30' 27"
Sunlit
Object was in daylight at epoch
Visualization orbit readout
Latitude
-34.70935°
Longitude
-16.56371°
Altitude
863.059 km
Speed
7.488 km/s
Apparent Right ascension
15h 19m 41s
Apparent Declination
-40° 33' 28"
Sunlit
Object is in daylight
Visualization observer readout
Local Sidereal Time
05:26:02
Azimuth
101.839° ESE
Elevation
-66.01°
Doppler factor
1
Orbital elements
Apogee altitude
1,122.481 km
Perigee altitude
844.5 km
Semi-major axis
7,361.627 km
Eccentricity
0.01888
Inclination
70.994°
RAAN
219.9166°
Arg. of periapsis
310.3954°
True anomaly
Unknown
Mean anomaly
231.7049°
Eccentric anomaly
Unknown
Mean motion
3.43623 °/min
Orbital period
104.77 mins
BSTAR
0.000089421
Loading maneuver chart data...
Loading SW <> Apogee altitude chart data...
Loading historical data...
Loading historical data...
Loading historical data...
Loading historical data...
Loading historical data...
Loading historical data...
Loading historical data...

SL-16 DEB Visibility forecast

Observer location: undefined°, undefined°

Span
Click to sort rows by Start time (UTC) header in descending order
Start Az.
Max El. time (UTC)
Max El. Az.
Max El.
End time (UTC)
End Az.
10 mins2025-07-06 02:31:39.216Z157.818° S2025-07-06 02:36:39.216Z99.312° ESE26.625°2025-07-06 02:41:39.216Z45.154° ENE
11 mins2025-07-06 04:18:39.216Z233.435° WSW2025-07-06 04:23:39.216Z304.496° NW34.831°2025-07-06 04:29:39.216Z11.484° NNE
9 mins2025-07-06 11:43:39.216Z13.017° NNE2025-07-06 11:47:39.216Z56.819° ENE21.934°2025-07-06 11:52:39.216Z102.325° ESE
12 mins2025-07-06 13:29:39.216Z331.418° NNW2025-07-06 13:34:39.216Z281.252° WNW43.329°2025-07-06 13:41:39.216Z167.839° S
|